Theta_e
316 316 316 316 316 316 316 317 318 319 320 320 321 322 324 325 325 325 324 324 326 324 325 328 327 327 329 331 330 331 332 331 330 331 332 331 329 326 326 327 327 329 329 331 332 332 331 329 327 325 325 327 329 329 330 330 330 331 330 330 329 330
316 316 317 317 317 316 316 316 316 316 316 317 319 319 320 324 326 326 326 325 325 325 323 324 327 328 329 329 327 328 330 330 331 332 332 331 331 329 327 326 327 327 326 328 330 332 332 331 329 328 328 329 330 330 330 330 330 331 330 331 330 328
317 317 316 316 316 315 315 315 316 315 315 315 316 317 318 322 325 326 327 327 326 325 323 322 326 328 329 329 326 328 329 328 330 332 331 330 329 330 329 327 327 326 325 327 329 330 332 332 331 331 331 331 330 330 329 330 330 331 331 332 330 328
316 316 316 316 316 316 316 316 316 315 315 315 315 317 320 322 324 324 325 327 327 326 325 323 324 325 327 327 326 327 328 327 329 330 330 330 328 328 328 328 327 327 325 325 327 329 330 331 331 331 331 330 330 329 330 331 331 331 332 332 331 329
316 317 317 317 317 317 317 316 315 315 315 315 315 317 320 323 324 324 325 326 327 327 327 326 324 324 325 325 324 325 327 327 327 328 329 330 330 329 327 327 328 328 326 324 325 327 328 329 329 330 330 329 328 328 329 331 331 331 331 331 331 331
317 318 318 318 318 317 316 315 314 313 313 314 316 318 320 324 325 325 326 326 326 326 327 327 326 325 325 325 325 325 326 326 326 326 327 327 329 330 328 327 329 330 328 325 324 324 325 326 327 328 329 328 327 327 329 330 331 330 330 331 331 331
318 318 318 317 315 314 313 312 311 310 310 311 315 319 321 324 325 326 326 325 325 326 326 327 327 327 327 328 328 327 327 327 326 325 326 326 327 328 328 328 329 330 330 328 325 324 323 323 325 326 326 327 328 328 329 330 330 330 330 331 332 331
318 318 316 315 313 312 311 309 309 308 308 309 313 320 323 324 325 325 325 324 324 325 325 325 326 327 328 328 328 328 328 328 327 326 326 327 327 328 328 329 329 329 331 330 328 326 324 323 324 325 325 328 331 331 331 330 330 330 329 331 331 330
318 317 315 313 312 310 309 309 308 307 307 308 312 319 324 325 325 325 324 324 324 325 325 325 325 325 326 327 327 327 327 327 327 327 326 326 327 327 328 329 329 330 331 331 331 330 328 326 324 324 324 328 332 332 331 331 331 330 329 331 331 329
317 316 314 313 312 310 309 308 307 307 307 310 314 320 324 324 324 324 324 323 324 325 325 325 325 325 325 326 327 327 327 326 326 327 327 326 326 326 327 328 328 328 328 329 330 331 331 330 327 327 327 329 331 330 330 330 330 330 329 331 331 329
316 316 314 314 312 310 310 309 308 308 309 312 317 320 323 324 324 324 323 323 324 324 324 325 325 325 325 325 326 327 327 327 327 327 327 327 327 326 327 327 328 326 327 328 329 330 331 331 330 331 330 330 330 330 330 330 330 330 330 331 330 328
316 316 315 314 312 311 310 309 308 308 310 314 318 320 321 322 323 323 323 323 323 324 324 324 324 324 324 325 325 325 326 327 328 328 328 328 328 327 327 328 328 327 327 329 330 330 330 330 331 331 330 330 330 330 330 330 330 330 330 331 330 328
317 316 315 314 312 312 310 309 308 308 309 313 317 319 320 321 322 322 321 321 321 322 322 323 323 323 323 324 324 325 325 326 327 328 329 329 329 328 328 329 329 328 329 330 331 331 330 331 331 331 331 330 331 331 330 330 330 330 330 331 330 328
317 316 315 314 313 312 311 310 309 308 309 311 314 317 319 320 320 320 320 320 320 320 321 321 321 322 322 322 323 323 324 325 326 327 328 328 329 329 328 329 329 329 330 330 331 330 329 330 331 332 332 331 332 331 330 329 329 330 329 330 330 328
317 317 315 314 313 312 311 310 310 309 309 310 311 313 315 316 318 318 319 319 320 320 320 320 320 320 320 321 321 322 323 324 325 326 327 328 329 329 329 329 328 328 329 330 330 329 329 329 330 331 332 332 332 332 330 329 330 330 330 331 330 328
317 317 315 314 313 312 312 311 311 310 310 310 310 310 310 311 313 314 316 317 318 318 319 319 319 319 319 320 320 321 322 322 323 324 326 328 329 329 330 329 329 329 330 330 330 329 329 329 329 330 331 332 332 331 330 328 329 330 331 332 330 329
317 316 315 313 313 312 312 312 311 311 310 310 310 309 309 309 309 311 312 314 315 316 317 317 317 318 318 319 320 321 322 322 323 323 325 327 329 329 330 330 330 330 330 331 330 329 329 330 329 329 331 332 332 331 329 328 329 331 332 332 330 330
317 315 314 313 313 313 312 312 312 312 311 311 311 310 309 308 309 309 310 312 313 314 315 315 316 316 317 318 320 321 322 322 323 323 324 326 328 329 330 330 331 331 331 331 330 329 330 330 330 329 330 332 332 331 330 329 331 332 332 331 330 330
317 315 314 314 314 313 313 313 312 312 312 311 311 311 310 309 310 311 311 312 312 313 313 314 315 315 316 318 319 321 322 322 322 323 323 325 326 327 328 330 330 330 330 331 330 329 329 331 331 330 330 331 332 332 331 330 332 333 332 332 331 331
317 315 314 314 314 314 313 313 313 312 312 312 312 311 311 310 310 312 313 313 314 314 314 313 314 315 316 318 319 320 321 321 321 322 323 323 324 325 326 328 329 330 330 330 330 330 330 331 331 330 330 331 332 333 333 332 331 332 332 332 331 331
319 317 317 315 315 315 314 314 313 313 313 312 312 312 312 311 311 312 313 314 315 316 315 314 313 315 316 318 318 319 320 320 321 321 321 321 322 323 323 325 327 328 329 330 330 330 330 330 330 330 330 330 332 333 334 332 331 331 332 332 331 332
320 319 319 319 317 316 315 314 314 314 314 313 313 312 312 312 311 311 313 315 316 316 316 315 314 315 316 317 318 319 319 319 319 319 319 319 319 320 321 322 323 325 327 329 330 330 330 330 329 329 330 330 331 332 333 333 332 332 332 332 332 331
321 321 321 321 319 318 317 316 315 315 315 314 314 313 312 313 312 311 312 315 316 316 316 316 316 316 316 317 318 318 319 318 318 318 318 318 318 318 318 319 320 322 325 327 329 330 330 330 330 330 330 331 330 331 332 332 332 332 332 332 332 332
322 321 321 322 321 320 319 318 316 316 316 316 315 314 313 313 312 311 311 313 315 316 316 316 316 316 316 317 317 318 318 318 317 318 319 319 318 318 317 318 318 319 322 325 328 330 330 330 331 330 330 331 330 330 330 330 330 330 331 331 331 331
321 321 321 322 322 322 321 320 318 317 318 317 316 315 314 313 313 312 310 312 314 315 315 316 316 316 316 316 317 317 317 317 318 319 319 319 319 319 318 318 319 319 320 322 325 328 329 330 330 331 330 330 329 329 329 329 329 329 330 331 331 331
320 321 322 322 322 322 322 322 320 318 319 319 318 316 314 313 313 313 311 311 313 314 315 316 316 316 316 317 317 317 317 317 318 318 319 319 319 320 319 319 320 320 320 321 324 326 328 329 330 330 331 330 329 329 329 330 330 330 329 330 331 331
322 322 321 321 322 321 321 323 322 319 319 320 319 317 316 314 313 313 312 310 311 313 314 316 316 316 316 317 316 317 317 316 317 318 318 319 319 319 320 320 321 321 321 321 323 325 326 328 329 329 330 330 330 330 330 330 330 330 330 330 330 331
323 323 321 321 322 321 321 323 322 321 320 321 320 319 317 316 314 313 313 311 311 312 314 315 316 316 315 316 316 316 316 316 316 317 317 318 318 318 319 320 320 321 321 322 324 325 325 326 327 328 329 329 330 330 329 329 329 330 330 330 329 330
323 323 322 323 323 322 321 322 322 321 321 321 321 320 318 317 315 314 313 312 311 312 313 315 316 317 316 316 317 316 317 316 316 316 316 317 317 317 317 318 318 320 320 321 323 324 325 326 326 326 327 328 329 329 329 329 329 329 329 329 330 329
323 324 323 323 323 322 321 322 323 322 322 322 322 321 320 318 316 315 314 313 312 311 313 314 315 316 317 317 317 317 317 317 316 316 316 316 316 316 317 317 317 319 319 320 320 323 325 326 326 326 326 327 328 328 329 329 329 329 329 330 330 329
324 324 323 323 324 323 323 323 323 323 323 322 322 322 321 319 318 316 314 313 313 311 312 315 315 316 316 317 317 317 317 317 316 316 317 316 316 316 316 316 317 317 318 319 320 320 322 324 326 326 326 327 327 327 328 328 328 329 329 329 329 329
324 325 324 324 324 324 324 324 323 323 323 323 322 322 321 320 319 317 315 313 313 311 311 314 316 316 317 316 317 317 317 317 316 316 316 316 315 315 316 316 316 315 316 316 318 319 320 322 323 324 325 326 326 326 327 328 328 328 328 328 329 329
325 326 325 325 325 325 325 324 324 324 323 323 323 322 322 321 319 318 316 313 313 312 310 312 316 317 317 317 317 316 316 317 316 315 315 314 314 314 315 315 316 315 315 315 315 317 318 319 320 322 323 324 325 325 326 327 327 328 327 327 328 329
326 326 326 325 325 325 324 324 324 324 324 323 323 322 322 321 320 319 317 313 313 313 310 310 314 315 315 316 316 315 315 315 315 314 314 313 313 313 313 314 314 314 315 315 314 315 316 317 318 320 321 322 323 324 324 325 325 326 327 327 328 328
326 326 326 326 325 325 324 324 324 324 324 323 323 323 322 321 320 319 317 314 313 314 311 310 312 313 313 314 315 315 315 315 314 314 314 313 313 313 312 312 312 313 314 315 314 314 314 315 317 318 320 321 322 323 323 324 324 324 325 326 327 327
324 325 325 325 325 324 324 324 324 324 324 324 323 323 322 322 321 320 318 315 313 314 313 310 310 311 312 313 313 314 315 315 315 314 314 313 313 312 312 311 312 312 313 314 314 314 314 313 314 316 318 320 320 322 323 323 323 323 323 324 326 327
322 323 324 324 324 324 324 324 324 324 323 323 323 323 323 322 321 320 318 315 314 314 313 311 310 310 312 313 313 313 315 315 315 314 313 313 312 311 311 311 312 312 313 313 313 314 314 313 313 314 316 318 320 321 321 322 323 323 323 323 324 325
Wind_Speed
8 9 10 11 12 11 11 10 9 8 8 9 8 8 7 6 7 7 7 7 6 6 5 5 3 3 3 4 4 5 4 3 2 2 1 1 1 1 3 3 5 6 4 2 2 3 5 7 8 9 8 7 6 6 5 4 5 4 3 2 2 2
10 11 12 12 14 14 14 13 13 12 11 11 9 9 9 8 8 8 8 7 6 5 5 4 3 4 4 4 4 5 5 3 2 2 2 2 1 2 2 2 3 5 6 5 5 4 5 7 8 9 9 8 8 7 6 5 5 6 6 5 3 3
11 12 12 12 13 14 14 14 15 15 14 13 12 11 10 9 9 9 9 9 7 6 5 4 3 4 5 4 3 4 5 4 3 3 3 2 2 2 2 2 2 3 7 8 7 7 7 7 9 9 9 9 8 8 6 5 6 6 7 6 4 4
11 12 12 13 13 14 14 14 15 15 15 15 15 13 11 10 10 10 10 10 8 7 6 4 4 5 5 4 4 4 5 5 5 5 5 2 3 5 4 3 3 3 6 8 8 8 8 9 10 10 10 10 9 8 6 6 6 7 7 7 5 4
11 12 13 14 14 15 15 15 15 15 15 14 14 13 12 11 10 10 9 9 9 8 7 6 6 6 7 7 6 5 4 5 5 6 6 4 4 6 5 5 5 5 6 8 9 9 9 10 11 12 11 10 9 8 7 6 7 7 7 7 6 5
11 12 13 14 14 14 14 14 15 15 15 14 13 12 11 11 10 10 10 9 9 9 8 7 7 8 8 9 8 6 5 5 5 6 7 7 6 5 5 7 6 6 7 8 8 9 10 11 12 13 12 10 9 9 8 7 6 7 7 7 7 6
12 14 14 14 14 14 13 13 14 14 15 14 13 11 10 10 10 11 11 11 10 9 8 8 8 8 9 10 9 8 7 6 5 5 6 7 7 6 5 7 7 7 8 8 8 8 9 11 13 13 12 11 10 9 9 8 7 7 7 8 7 6
13 14 14 15 15 15 15 14 14 14 14 13 12 10 10 10 10 11 11 12 12 11 10 9 9 8 9 10 10 9 7 7 6 5 4 5 6 7 6 6 7 8 9 9 8 8 9 11 12 13 13 11 10 10 9 9 8 8 7 8 7 7
13 13 14 15 15 16 17 17 16 15 14 12 11 10 10 10 11 12 12 12 13 13 12 11 10 9 9 9 9 9 8 7 7 6 5 5 6 6 6 6 7 8 8 9 10 10 10 11 12 12 13 12 12 11 11 10 10 9 9 9 8 7
12 12 12 15 17 18 19 19 19 18 15 11 9 9 10 11 12 12 13 13 13 14 14 13 12 11 10 9 8 8 8 8 7 7 6 6 6 6 6 6 6 7 8 9 10 11 11 11 12 13 13 13 14 14 13 12 11 10 10 10 9 8
11 11 13 16 18 20 21 21 21 20 17 12 9 8 9 11 12 13 13 13 13 13 14 14 14 13 11 10 9 8 8 8 8 8 7 7 7 7 6 6 7 7 8 9 10 11 11 11 12 13 13 13 14 14 14 12 11 10 10 10 9 8
10 11 14 17 19 21 22 22 22 20 19 15 11 9 9 10 11 12 13 13 12 12 13 14 14 14 12 12 10 9 8 7 8 8 9 9 9 8 7 7 8 8 8 8 9 10 10 11 12 13 14 14 14 13 12 11 10 9 9 10 10 9
10 12 15 18 19 21 22 23 22 21 19 16 13 10 9 9 10 11 13 13 13 12 12 13 14 14 12 12 12 11 9 8 8 8 9 10 10 9 9 9 9 9 8 8 8 9 9 10 10 10 12 13 13 12 10 10 10 9 9 10 11 11
10 13 16 18 19 20 22 22 22 21 19 16 14 12 10 9 9 11 12 12 13 13 13 13 13 13 12 12 12 12 11 9 8 8 9 10 10 10 10 10 10 9 9 9 9 9 9 9 9 9 9 10 10 9 9 9 9 10 10 11 12 12
11 13 15 16 18 19 21 21 22 21 20 18 15 13 11 10 10 11 11 12 13 13 13 13 13 13 12 12 12 12 12 10 10 8 8 9 9 10 10 10 11 10 9 9 9 9 9 9 9 9 8 8 7 7 8 8 9 10 10 12 13 13
11 12 13 15 17 18 19 20 21 21 21 21 20 18 15 12 11 11 11 12 13 13 13 13 13 13 12 12 12 12 11 11 10 9 8 8 9 9 9 9 10 10 10 9 9 9 9 10 10 10 9 8 7 7 7 7 8 10 11 12 14 13
10 11 12 13 15 16 18 19 19 20 22 23 24 24 21 16 11 10 10 11 12 12 13 13 12 12 11 11 11 10 10 10 9 8 7 7 8 8 7 7 9 10 10 9 9 9 9 10 11 11 10 9 8 8 8 7 8 10 12 13 13 14
9 9 10 11 13 15 16 17 18 20 21 24 25 26 25 20 14 11 9 9 10 11 12 12 12 11 9 9 9 8 8 9 9 8 7 6 7 7 7 8 8 8 9 9 8 10 11 11 11 11 10 10 9 9 9 9 10 11 12 13 13 14
8 8 8 10 11 12 14 15 17 19 20 23 24 26 27 24 18 15 13 11 11 11 10 10 9 8 7 7 7 7 8 8 8 8 7 7 6 7 7 8 8 7 8 8 8 10 12 12 11 11 10 10 11 11 10 10 11 11 12 14 13 14
7 7 7 8 10 11 12 14 16 18 20 22 24 25 27 26 21 15 13 12 12 12 13 10 7 5 5 5 5 5 7 7 8 8 8 8 8 8 8 8 8 7 7 7 8 10 11 11 11 10 10 11 12 12 12 12 12 11 12 15 14 14
7 7 8 8 9 11 12 13 15 18 21 22 23 25 26 28 23 16 12 11 11 12 14 12 6 3 4 5 4 4 6 7 8 8 8 9 9 9 9 10 9 8 7 7 7 8 10 11 11 11 11 11 12 12 13 13 13 12 12 15 15 14
9 8 9 10 10 12 13 14 15 17 20 21 22 24 25 27 26 18 11 10 12 13 13 12 8 4 4 4 3 4 6 6 7 8 8 9 10 10 10 11 11 10 9 7 7 6 7 9 10 11 11 12 12 12 14 14 13 13 13 14 15 15
12 10 11 11 11 12 13 13 15 16 18 20 21 22 23 24 25 21 13 10 11 12 12 12 9 7 4 3 3 4 6 7 8 8 7 7 8 9 10 10 11 11 10 9 7 5 4 6 8 10 11 11 11 11 13 15 15 14 14 15 16 16
12 12 12 12 12 12 12 13 15 16 17 18 20 21 21 22 24 23 16 11 10 10 10 11 11 9 5 4 4 5 7 8 8 7 6 6 6 7 8 9 9 10 10 10 8 5 4 5 6 7 8 10 11 11 11 12 14 15 15 15 15 16
11 12 12 13 13 13 12 13 15 15 15 17 19 20 21 22 23 24 20 13 11 11 10 10 10 9 6 4 4 5 6 7 6 5 5 6 7 7 7 7 7 8 9 9 9 7 4 4 5 5 7 8 8 8 9 11 11 12 14 15 15 15
9 10 14 15 15 15 12 12 14 15 15 16 18 19 21 22 22 24 23 17 12 12 11 10 9 8 7 5 4 5 6 7 6 6 6 6 7 8 7 6 6 7 7 8 9 8 6 4 4 5 6 8 8 7 8 9 8 8 11 13 14 14
9 9 11 13 15 15 13 11 13 14 14 15 17 18 20 21 21 22 24 21 15 11 11 11 9 8 6 5 5 5 6 8 7 6 7 6 7 8 7 7 6 7 6 7 8 8 7 6 5 4 5 7 9 10 9 9 7 6 7 9 10 12
12 11 9 10 13 15 14 11 12 14 14 14 16 17 18 20 20 20 22 23 18 12 11 11 9 8 7 5 5 6 7 8 7 6 7 6 7 8 7 8 8 7 7 6 6 7 8 7 6 5 5 6 8 10 11 11 10 8 7 7 8 9
16 14 12 11 11 14 15 12 11 12 13 14 15 17 18 19 19 19 20 23 21 14 11 10 9 8 8 6 6 7 8 9 8 7 7 6 6 7 7 8 9 8 7 7 6 6 7 7 7 7 6 6 7 8 10 11 11 11 10 10 10 8
17 15 14 14 12 14 15 12 11 11 12 13 14 16 17 18 18 18 19 21 22 16 11 10 9 8 8 7 7 8 8 9 9 8 8 8 7 7 7 8 9 8 7 7 8 7 7 6 7 7 7 7 7 8 8 9 10 12 12 12 13 13
18 15 15 16 15 14 14 13 12 11 12 12 14 16 17 17 18 18 18 20 22 19 12 10 9 8 8 8 7 8 8 8 9 10 10 11 10 9 9 9 9 9 8 8 8 9 9 8 7 7 7 7 7 7 8 9 10 11 12 13 14 15
19 17 16 16 15 15 14 13 12 11 12 12 13 15 16 16 17 18 18 19 20 20 15 10 8 7 6 7 7 7 7 7 9 11 12 12 12 12 12 12 12 12 11 9 8 9 10 10 9 9 8 8 8 8 8 10 11 11 11 12 13 14
20 18 17 15 14 14 13 13 12 11 11 12 14 15 15 16 16 17 17 18 18 20 18 11 8 7 6 6 7 7 7 8 9 12 14 15 15 14 13 13 13 14 13 12 11 10 10 10 10 10 10 10 10 10 9 10 11 10 11 12 13 14
17 16 16 14 13 13 12 12 12 12 11 13 14 15 15 16 16 16 16 17 17 18 19 14 8 7 8 7 8 8 8 10 12 14 15 16 16 15 14 14 14 14 14 14 13 12 11 10 10 10 11 11 11 11 11 11 11 11 12 12 13 13
12 11 12 12 13 13 12 12 13 12 12 13 15 16 15 15 15 16 16 16 17 17 18 17 10 8 9 9 9 10 10 11 12 14 17 18 18 16 16 15 15 14 14 14 14 14 13 11 11 11 11 12 12 12 12 12 12 12 12 12 12 13
8 8 10 11 12 12 12 13 14 14 14 14 16 16 16 15 15 15 16 16 17 17 17 18 15 10 9 10 11 12 12 12 13 15 17 18 17 17 17 16 15 14 13 13 14 14 14 13 13 12 11 12 13 13 13 14 14 13 13 12 13 14
6 7 8 9 10 11 12 13 14 14 14 15 16 17 16 16 15 15 15 15 16 17 17 18 18 13 10 10 11 13 13 14 16 17 16 16 17 18 16 14 13 13 14 14 14 14 15 14 14 14 13 13 13 14 14 14 14 14 14 13 13 14
Wind_Direction
27 25 20 15 10 6 5 1 359 358 353 345 336 332 327 318 307 308 311 315 323 331 335 338 339 304 287 302 333 344 341 0 332 312 25 199 195 324 287 237 224 245 261 220 211 209 219 228 228 231 233 242 249 254 254 237 225 235 248 224 201 184
31 30 25 18 12 8 3 359 357 355 351 344 337 330 325 322 314 310 307 302 305 320 330 324 320 310 315 331 323 327 341 341 312 295 259 260 338 340 285 267 239 247 254 237 221 220 227 235 236 237 239 246 257 265 267 254 242 245 250 242 233 211
31 28 26 22 16 9 2 357 353 350 348 343 337 333 327 323 316 314 313 310 304 304 316 317 309 308 324 340 306 312 338 323 301 293 270 282 324 289 273 301 301 261 254 241 227 228 231 241 247 248 251 255 262 271 276 269 257 246 241 240 237 215
30 27 24 21 15 9 3 356 351 347 344 340 336 334 330 325 320 316 313 316 317 307 305 309 308 308 313 323 314 316 328 320 312 294 276 284 267 261 270 288 282 267 263 249 235 234 234 242 252 255 256 258 263 268 272 267 258 247 234 225 221 213
27 22 19 16 12 6 0 354 349 344 340 339 335 333 330 327 324 320 315 315 320 319 312 303 298 301 303 307 316 320 318 318 321 303 286 279 261 252 254 263 267 268 272 259 243 238 235 238 246 252 255 257 263 266 266 265 257 247 232 217 216 211
23 18 15 13 11 5 359 352 347 342 338 335 334 334 332 329 328 326 324 321 320 321 320 311 297 293 295 301 309 312 311 309 312 309 297 287 278 262 241 244 257 265 269 264 252 243 237 237 240 245 252 256 263 265 264 265 261 247 233 221 223 213
21 17 14 14 12 8 4 358 350 344 337 332 333 336 334 332 333 333 334 333 329 324 322 320 311 300 296 296 301 302 301 301 303 307 303 297 293 286 262 245 248 254 257 258 255 248 242 241 240 241 246 252 260 264 264 265 264 256 239 225 227 219
20 15 13 16 14 13 10 6 360 352 345 336 332 334 338 337 335 335 336 335 334 332 327 323 319 314 308 301 300 301 298 296 297 299 298 299 296 295 290 267 253 249 248 252 250 247 245 245 245 243 244 245 250 258 263 264 265 261 238 219 220 217
21 14 16 19 17 16 13 9 6 1 357 345 333 334 339 337 335 335 334 334 337 339 338 334 329 322 318 314 309 306 303 296 290 288 288 287 287 288 288 277 263 255 250 251 248 245 246 247 248 247 245 243 245 256 261 263 264 259 234 216 215 211
25 17 21 24 21 19 16 14 11 8 6 358 341 335 336 335 336 335 335 338 340 342 343 342 341 334 327 322 317 313 306 300 290 280 280 280 277 278 282 281 273 265 257 255 252 248 247 247 247 248 248 247 250 259 262 259 257 249 231 217 212 208
26 19 26 27 25 24 21 19 16 14 13 12 358 339 335 334 334 334 335 340 342 343 341 340 341 341 337 330 321 315 307 300 291 279 275 272 269 270 273 276 273 269 267 265 257 250 249 248 247 248 248 248 252 259 260 252 244 236 225 215 211 209
22 18 27 28 27 26 25 24 20 18 17 15 9 353 339 331 329 331 331 334 339 342 340 337 336 335 335 333 326 320 313 301 291 279 272 268 269 270 267 268 268 265 267 269 258 247 247 248 248 249 248 249 251 255 253 239 231 227 221 214 210 209
17 18 26 28 27 28 28 27 23 21 19 14 7 359 346 336 331 326 324 324 328 331 332 331 331 331 332 332 328 323 319 312 298 283 273 269 270 270 265 264 264 262 261 259 255 249 250 250 248 250 249 247 245 245 239 228 226 225 224 218 209 207
14 18 26 27 26 28 30 29 26 24 23 16 5 353 341 334 325 319 319 319 320 321 323 323 322 325 327 326 325 321 318 317 310 299 286 276 271 271 266 263 260 259 257 253 252 254 257 257 249 248 247 241 236 237 233 230 232 230 227 217 206 208
9 15 24 25 24 28 30 31 30 27 26 22 14 360 342 327 315 310 310 310 313 313 315 317 315 316 319 319 320 318 314 312 310 308 303 289 281 278 272 266 260 255 255 252 250 252 257 259 251 246 243 235 229 233 233 237 242 235 224 210 204 209
3 11 20 23 23 27 29 30 30 28 25 22 18 12 1 343 323 311 303 302 304 305 307 308 309 313 316 317 318 318 316 312 307 304 306 302 297 292 280 268 259 252 248 246 247 251 259 263 258 249 241 234 230 233 232 237 248 238 220 206 204 208
356 8 19 22 21 25 29 29 27 26 23 19 16 14 10 1 346 329 313 305 301 300 302 302 304 309 312 315 316 316 315 311 306 300 298 299 303 304 295 275 259 251 243 239 245 254 262 262 261 255 242 234 232 235 235 235 245 236 217 205 202 204
348 4 15 17 17 21 25 25 23 23 21 19 17 15 14 10 7 2 350 334 321 309 302 299 302 305 306 308 310 311 310 306 300 295 291 289 297 305 304 290 275 263 250 240 242 252 259 258 257 257 248 239 234 233 235 237 239 233 218 209 205 205
339 357 6 9 10 15 20 20 19 19 18 18 17 15 15 14 13 13 10 2 349 335 319 307 301 305 301 292 297 300 298 299 295 292 289 284 286 293 298 298 293 284 270 256 243 245 253 256 254 255 252 247 241 234 232 234 237 233 222 214 213 211
326 340 351 359 359 4 14 14 12 13 13 15 16 14 15 16 14 13 12 7 358 347 338 330 310 294 289 281 291 298 293 295 295 292 291 284 279 282 287 293 297 296 287 275 255 244 248 253 251 250 251 250 246 238 230 229 233 232 224 218 218 217
312 322 332 341 344 349 1 7 7 9 9 10 12 11 14 17 15 13 9 4 360 353 349 349 339 287 271 277 293 307 300 297 300 300 297 293 287 282 282 284 292 299 296 286 266 251 248 250 249 248 247 248 248 242 233 229 231 231 225 220 219 218
298 305 318 326 331 338 349 360 4 7 6 5 8 9 11 15 15 13 6 358 1 0 358 0 358 329 288 287 303 316 314 311 313 314 307 303 296 288 285 281 284 291 294 291 281 266 255 252 250 246 243 245 247 245 238 232 232 232 229 224 221 218
291 299 307 315 319 328 339 349 357 3 4 1 3 7 9 11 14 13 6 358 359 2 4 5 2 349 326 320 331 325 328 333 326 323 320 313 302 293 289 285 283 286 290 292 295 294 276 260 252 245 240 240 243 245 243 239 236 234 233 229 226 223
290 300 303 304 307 317 328 336 343 353 359 358 356 2 7 9 12 12 7 359 355 359 4 5 3 1 356 348 342 329 333 337 328 328 343 341 329 318 308 300 291 285 286 289 293 301 297 277 262 247 235 231 233 238 242 242 240 237 235 234 231 230
285 294 295 294 296 303 317 326 333 342 351 353 351 354 2 7 11 12 9 1 352 352 359 4 4 6 9 4 355 346 340 337 331 340 357 355 347 341 331 321 308 296 287 285 288 292 301 295 275 255 236 227 227 234 240 241 242 237 234 234 232 231
276 285 286 285 284 289 303 319 326 335 344 348 348 351 359 4 8 11 10 6 355 349 354 359 0 6 11 8 358 349 341 336 338 350 357 356 348 343 346 342 330 315 294 284 286 286 291 298 284 264 247 237 231 234 241 244 247 243 236 235 233 230
272 284 286 277 272 278 295 312 320 330 341 345 347 350 356 1 4 8 12 10 3 353 348 348 350 356 358 2 353 337 333 332 335 346 351 354 350 348 353 349 340 335 315 295 292 288 282 287 291 275 256 249 243 241 244 246 250 254 248 240 234 231
272 275 286 280 264 266 285 306 313 324 337 341 343 348 352 357 1 6 11 11 8 1 351 346 344 339 336 346 344 325 327 334 334 337 341 348 350 352 354 342 337 339 329 310 303 302 291 282 285 286 272 260 252 248 250 252 252 257 269 265 248 236
276 275 284 292 274 258 272 301 313 319 333 336 338 344 347 352 356 1 8 11 9 4 356 351 346 335 329 327 325 323 329 338 342 339 339 343 342 345 344 335 331 331 325 316 309 313 314 298 284 284 285 278 267 256 250 252 253 253 261 269 268 259
281 286 284 287 285 264 269 299 314 316 327 330 332 338 343 347 351 356 3 7 8 6 359 352 348 336 328 322 317 326 331 334 344 346 342 341 340 340 340 331 329 328 323 319 310 305 315 319 300 284 281 282 282 279 267 256 251 251 253 258 263 264
280 290 284 280 283 276 277 296 308 312 320 323 326 332 337 342 345 351 359 4 5 6 2 350 347 334 327 329 321 322 328 330 341 343 338 341 343 344 344 337 330 328 324 318 312 305 304 309 307 295 286 280 276 284 284 271 261 257 258 260 262 264
280 285 285 282 281 279 281 291 301 307 312 314 318 325 331 336 340 346 355 2 2 4 4 354 348 339 320 322 318 317 323 326 336 337 335 340 342 341 340 335 329 330 332 326 313 305 303 303 302 296 291 284 271 269 275 276 273 268 265 265 265 266
284 286 285 285 279 275 280 288 296 303 305 307 310 317 324 329 335 340 350 0 359 1 4 358 351 351 332 316 321 331 328 323 328 329 327 331 333 335 335 330 327 325 328 329 323 311 304 304 304 298 294 289 281 275 272 271 274 270 264 262 260 263
283 285 281 281 276 274 279 283 292 298 299 301 302 308 317 322 330 335 344 358 358 357 1 359 344 337 334 324 325 333 326 318 320 320 320 323 324 326 326 323 320 318 319 321 322 319 310 302 299 297 293 291 288 286 281 275 271 267 264 262 261 263
283 282 278 279 278 277 280 283 289 293 293 296 298 302 311 316 322 330 339 353 356 352 357 360 347 319 317 316 313 312 308 305 309 314 318 320 319 320 320 316 311 311 312 312 312 313 311 305 297 291 288 288 288 288 288 283 278 273 268 265 264 262
294 291 286 285 283 281 281 281 285 291 291 292 294 296 304 310 314 325 335 346 353 349 349 356 352 328 307 305 306 305 303 305 309 315 318 317 318 319 317 311 305 304 305 306 307 307 307 305 300 291 283 282 283 284 287 286 285 283 275 266 263 260
308 302 299 297 293 288 284 284 286 291 291 290 291 292 298 305 307 318 331 341 348 345 343 349 351 341 317 301 301 302 304 308 314 320 322 321 323 323 318 310 304 302 302 303 304 304 304 303 300 294 285 279 277 276 278 281 287 289 284 276 267 262